Крюково

Россия / Московская область     55°05′56″N   37°32′47″E
темп.,
°C
ветер,
м/с
пор.,
м/с
влажн.,
%
обл.,
%
осадки,
мм/ч
давл.,
гПа
погр.,
м
21 апреля, ср
ср2100:00+2всв4997100 0.2 1010522
03:00+1ссв4998100 2.5 1007346
06:00+1ссз3799100 3.2 1004235
09:00+2з35100100 5.3 1004234
12:00+3зюз4797100 0.1 1006600
15:00+4зюз3791100 0.3 1008810
18:00+4юз3790100 0.0 1010520
21:00+3ююз2796100 0.0 1012233
22 апреля, чт
чт2200:00+3ююз3893100 0.0 1013244
03:00+4ююз3894100 0.1 1014301
06:00+3ююз279593 0.0 1015208
09:00+7ююз468593 0.0 1016558
12:00+10ююз566854 0.2 10171239
15:00+11ююз456192 0.4 10161482
18:00+11ююв387160 0.0 1016365
21:00+7ююв312895 0.0 1016277
23 апреля, пт
пт2300:00+7ю4119089 0.0 1016319
03:00+6ю3109598 0.0 1016232
06:00+7ю4129175 0.0 1016324
09:00+11ю51375100 0.1 1016575
12:00+15ю611605 0.5 10151905
15:00+15ю51057100 1.3 10141267
18:00+13ююв5116119 0.2 1014639
21:00+11ююв5147062 0.3 1013556
24 апреля, сб
сб2400:00+9ююв6157684 0.1 1011712
03:00+8ююв51387100 0.1 1009577
06:00+8ююз4891100 0.3 1008755
09:00+3з4898100 3.3 1010479
12:00+5зсз4787100 1.1 1010652
15:00+7з3566100 1.3 10101132
18:00+7з2570100 0.4 1010826
21:00+4юз2682100 0.7 1010128
25 апреля, вс
вс2500:00+3зюз398878 0.0 1011348
03:000юз38955 0.0 1012264
06:000юз389610 0.0 1012312
09:00+4зюз467024 0.0 1012998
12:00+7зюз4556100 0.1 10131609
15:00+8юз3548100 0.3 10131863
18:00+6юз3667100 1.3 1014718
21:00+3ююз238346 1.3 101549